Powrót do katalogu

JILIN-01 GAOFEN 2D

AktywnyNaukaSSO
NORAD 49256·PAYLOAD·🇨🇳 China

Wystrzelony Sep 27, 2021 z Jiuquan Satellite Launch Center

Loading…

Następne Przeloty (najbliższe 24 godziny)

TLE

ŚwieżeSource: Space-Track

Epoka: Sep 14, 2026, 13:57 UTC

1 49256U 21086A   26257.58145967  .00002814  00000-0  18329-3 0  9991
2 49256  97.6577  20.2703 0029920 218.4468 141.4629 15.08414743274218

Śledź JILIN-01 GAOFEN 2D w czasie rzeczywistym z AllMySat

Download on the App Store